Tracking 27126 objects as of 31-Mar-2023
HD Live streaming from Space Station
objects crossing your sky now

STARLINK-2463

Track STARLINK-2463 now!
10-day predictions
STARLINK-2463 is classified as:


NORAD ID: 48122
Int'l Code: 2021-027AG
Perigee: 553.7 km
Apogee: 555.0 km
Inclination: 53.1 °
Period: 95.6 minutes
Semi major axis: 6925 km
RCS: Unknown
Launch date: April 7, 2021
Source: United States (US)
Launch site: AIR FORCE EASTERN TEST RANGE (AFETR)
Your satellite tracking list
Your tracking list is empty




NASA's NSSDC Master Catalog

Two Line Element Set (TLE):
1 48122U 21027AG  23088.89262110  .00024974  00000-0  16900-2 0  9993
2 48122  53.0551 306.0322 0000954 130.5141 229.5931 15.06390553110085
Source of the keplerian elements: AFSPC